Regional Weather Roundup
Issued by NWS

Home | Current Version | Previous Version | Graphics & Text | Print | Product List | Glossary On
Versions: 1 2 3 4 5 6 7 8 9 10 11 12 13 14 15 16 17 18 19 20 21 22 23 24 25 26 27 28 29 30 31 32 33 34 35 36 37 38 39 40 41 42 43 44 45 46 47 48 49 50
000
ASUS43 KLSX 220907
RWRMO

WEATHER SUMMARY FOR MISSOURI
NATIONAL WEATHER SERVICE SPRINGFIELD MO
300 AM CST MON DEC 22 2014

NOTE: "FAIR" INDICATES FEW OR NO CLOUDS BELOW 12,000 FEET WITH NO
       SIGNIFICANT WEATHER AND/OR OBSTRUCTIONS TO VISIBILITY.
       CURRENT SKY AND/OR WEATHER CONDITIONS ARE NOT AVAILABLE FOR
       CHILLICOTHE AND FARMINGTON.

MOZ001>031-035>038-043-044-053-054-221000-
...NORTHERN AND WESTERN MISSOURI...

CITY           SKY/WX    TMP DP  RH WIND       PRES   REMARKS
KANSAS CTY INT CLOUDY    42  38  85 S12       29.67F
KANSAS C DTWN  LGT RAIN  44  37  76 S8        29.68F
LEE`S SUMMIT   CLOUDY    42  37  82 SE6       29.69F
ST JOSEPH      CLOUDY    43  39  86 S10       29.67F
CHILLICOTHE      N/A     42  37  82 SE9       29.73F
KIRKSVILLE     CLOUDY    39  36  89 SE13      29.77F

$$
MOZ066>068-077>081-088>096-101>105-221000-
...SOUTHWEST MISSOURI...

CITY           SKY/WX    TMP DP  RH WIND       PRES   REMARKS
SPRINGFIELD    CLOUDY    43  36  76 SE15      29.70F
JOPLIN         CLOUDY    44  41  89 SE9       29.68F

$$
MOZ032>034-039>042-045>050-055>058-069>072-221000-
...CENTRAL MISSOURI...

CITY           SKY/WX    TMP DP  RH WIND       PRES   REMARKS
COLUMBIA       CLOUDY    41  35  79 SE8       29.78F
JEFFERSON CITY LGT RAIN  41  35  79 E7        29.79F
ROLLA          CLOUDY    42  32  67 SE12      29.77F
SEDALIA        MOCLDY    43  36  76 SE7       29.73F
WHITEMAN AFB   MOCLDY    43  36  75 SE10      29.71F
WARRENSBURG    CLOUDY    41  36  81 SE8       29.70F
OSAGE BEACH    CLOUDY    43  34  70 SE6       29.75F

$$
MOZ051-052-059>065-221000-
...EAST CENTRAL MISSOURI...

CITY           SKY/WX    TMP DP  RH WIND       PRES   REMARKS
ST LOUIS INTL  CLOUDY    43  31  62 SE12      29.87F
SPIRIT OF STL  CLOUDY    42  31  64 E7        29.85F
ST CHARLES     CLOUDY    40  33  76 E12       29.87F

$$
MOZ072>076-082>087-097>100-106>115-221000-
...SOUTH CENTRAL AND SOUTHEAST MISSOURI...

CITY           SKY/WX    TMP DP  RH WIND       PRES   REMARKS
CAPE GIRARDEAU CLOUDY    43  36  76 SE6       29.89F
FARMINGTON     CLOUDY    41  32  70 E8        29.86F
POPLAR BLUFF   CLOUDY    44  36  73 E3        29.86F
WEST PLAINS    CLOUDY    42  34  73 SE9       29.78F

$$


USA.gov is the U.S. government's official web portal to all federal, state and local government web resources and services.